Location: Unspecified
(0.0000°N, 0.0000°E)
Time: 15:37:51
(UTC+01:00)

PROBA 2 - Visible Passes

Search period start: 23 January 2017 00:00
Search period end: 02 February 2017 00:00
Orbit: 705 x 726 km, 98.3° (Epoch: 22 January)

Date Brightness Start Highest point End Pass type
(mag) Time Alt. Az. Time Alt. Az. Time Alt. Az.
23 Jan ? 19:29:47 10° N 19:34:34 67° WNW 19:39:24 10° SSW visible
24 Jan ? 06:18:17 10° ESE 06:20:22 13° ENE 06:22:26 10° NE visible
24 Jan ? 20:18:22 10° NW 20:21:22 17° WNW 20:24:23 10° WSW visible
26 Jan ? 06:14:53 10° E 06:16:12 11° ENE 06:17:31 10° ENE visible
26 Jan ? 20:13:52 10° NW 20:17:12 19° WNW 20:20:33 10° WSW visible
28 Jan ? 20:09:26 10° NNW 20:13:02 21° WNW 20:16:41 10° SW visible
30 Jan ? 20:05:02 10° NNW 20:08:53 24° WNW 20:12:46 10° SW visible
01 Feb ? 20:00:40 10° NNW 20:04:43 27° WNW 20:08:49 10° SW visible
